Station KPTN6 - 8516945 - Kings Point, NY Image indicating link to RSS feed of recent meteorological observations for station KPTN6


Conditions at KPTN6 as of
(6:00 pm EDT)
2200 GMT on 04/14/2024:
     

Click on the graph icon in the table below to see a time series plot of the last five days of that observation.

5-day plot - Wind Direction Wind Direction (WDIR):SSE ( 160 deg true )
5-day plot - Wind Speed Wind Speed (WSPD): 15.9 kts
5-day plot - Wind Gust Wind Gust (GST): 20.0 kts
5-day plot - Atmospheric Pressure Atmospheric Pressure (PRES):29.65 in
5-day plot - Pressure Tendency Pressure Tendency (PTDY):-0.10 in ( Falling Rapidly )
5-day plot - Air Temperature Air Temperature (ATMP): 58.5 °F
5-day plot - Wind Speed at 10 Meters Wind Speed at 10 meters (WSPD10M): 15.5 kts
5-day plot - Wind Speed at 20 Meters Wind Speed at 20 meters (WSPD20M): 17.5 kts
5-day plot -  Wind Speed, Wind Gust and Atmospheric Pressure Combined plot of Wind Speed, Gust, and Air Pressure
NOS Water Level Observation Network Water Level
Previous observations
TIME
(EDT)
5-day plot - Wind Direction
WDIR
 
5-day plot - Wind Speed
WSPD
kts
5-day plot - Wind Gust
GST
kts
5-day plot - Wave Height
WVHT
ft
5-day plot - Dominant Wave Period
DPD
sec
5-day plot - Average Wave Period
APD
sec
5-day plot - Mean Wave Direction
MWD
 
5-day plot - Atmospheric Pressure
PRES
in
5-day plot - Pressure Tendency
PTDY
in
5-day plot - Air Temperature
ATMP
°F
5-day plot - Water Temperature
WTMP
°F
5-day plot - Dew Point
DEWP
°F
5-day plot - Salinity
SAL
psu
5-day plot - Visibility
VIS
nmi
5-day plot - Tide (above MLLW)
TIDE
ft
2024-04-14 05:54 pm S 17.1 20.0----29.65- 58.8-----
2024-04-14 05:48 pm S 20.0 22.0----29.65-------
2024-04-14 05:42 pm S 20.0 22.0----29.65-------
2024-04-14 05:36 pm S 19.0 22.9----29.65-------
2024-04-14 05:30 pm S 19.0 25.1----29.65-------
2024-04-14 05:24 pm S 20.0 24.1----29.65-------
2024-04-14 05:18 pm S 22.0 24.1----29.65- 59.9-----
2024-04-14 05:12 pm S 19.0 25.1----29.66- 59.7-----
2024-04-14 05:06 pm S 19.0 25.1----29.67- 60.6-----
2024-04-14 05:00 pm S 21.0 22.0----29.67-0.09 60.6-----
2024-04-14 04:54 pm S 19.0 22.0----29.67- 60.8-----
2024-04-14 04:48 pm S 17.1 20.0----29.68- 60.3-----
2024-04-14 04:42 pm S 19.0 22.0----29.68- 60.4-----
2024-04-14 04:36 pm S 19.0 22.0----29.69- 60.8-----
2024-04-14 04:30 pm S 18.1 20.0----29.69- 60.1-----
2024-04-14 04:24 pm S 19.0 21.0----29.69- 59.7-----
2024-04-14 04:18 pm S 18.1 21.0----29.70- 60.4-----
2024-04-14 04:12 pm S 18.1 22.9----29.70- 60.1-----
2024-04-14 04:06 pm S 20.0 24.1----29.70- 60.1-----
2024-04-14 04:00 pm S 19.0 22.9----29.70-0.16 59.7-----
2024-04-14 03:54 pm S 21.0 24.1----29.70- 60.6-----
2024-04-14 03:48 pm S 19.0 25.1----29.72- 59.9-----
2024-04-14 03:42 pm S 21.0 25.1----29.72- 60.6-----
2024-04-14 03:36 pm S 18.1 21.0----29.72- 60.6-----
2024-04-14 03:30 pm S 18.1 21.0----29.73- 60.3-----
2024-04-14 03:24 pm S 18.1 22.0----29.73- 60.4-----
2024-04-14 03:18 pm S 17.1 22.9----29.74- 60.4-----
2024-04-14 03:12 pm S 12.0 19.0----29.75- 60.6-----
2024-04-14 03:06 pm S 15.0 17.1----29.75- 60.4-----
2024-04-14 03:00 pm S 15.9 21.0----29.75-0.15------
2024-04-14 02:54 pm S 18.1 21.0----29.75-------
2024-04-14 02:48 pm S 17.1 21.0----29.75- 60.8-----
2024-04-14 02:42 pm S 15.9 19.0----29.75- 60.1-----
2024-04-14 02:36 pm S 14.0 18.1----29.76- 59.9-----
2024-04-14 02:30 pm S 14.0 18.1----29.76- 58.8-----
2024-04-14 02:24 pm S 15.9 19.0----29.77- 59.4-----
2024-04-14 02:18 pm S 13.0 19.0----29.77- 57.7-----
2024-04-14 02:12 pm S 13.0 15.9----29.78- 57.2-----
2024-04-14 02:06 pm S 13.0 17.1----29.77- 57.0-----
2024-04-14 02:00 pm S 14.0 20.0----29.76-0.16 57.0-----
2024-04-14 01:54 pm S 17.1 22.0----29.75- 57.2-----
2024-04-14 01:48 pm S 19.0 22.9----29.76- 57.9-----
2024-04-14 01:42 pm S 21.0 25.1----29.76- 58.1-----
2024-04-14 01:36 pm S 22.0 26.0----29.76- 60.1-----
2024-04-14 01:30 pm S 17.1 21.0----29.79- 61.3-----
2024-04-14 01:24 pmSSW 15.9 20.0----29.83- 61.7-----
2024-04-14 01:18 pmSSW 12.0 15.9----29.84- 60.8-----
2024-04-14 01:12 pmSSW 12.0 15.0----29.85- 60.8-----
2024-04-14 01:06 pm SW 13.0 15.9----29.85- 61.9-----
2024-04-14 01:00 pm SW 13.0 15.9----29.87-0.08 61.0-----
2024-04-14 12:54 pm SW 13.0 15.9----29.88- 61.2-----
2024-04-14 12:48 pm SW 15.9 20.0----29.88-------
2024-04-14 12:42 pm SW 13.0 17.1----29.88-------
2024-04-14 12:36 pm SW 13.0 17.1----29.89-------
2024-04-14 12:30 pm SW 8.9 12.0----29.89-------
2024-04-14 12:24 pm SW 9.9 13.0----29.90-------
2024-04-14 12:18 pmWSW 11.1 14.0----29.89- 60.4-----
2024-04-14 12:12 pm SW 12.0 15.0----29.88- 59.9-----
2024-04-14 12:06 pm SW 11.1 18.1----29.89- 60.1-----
2024-04-14 12:00 pm SW 14.0 15.0----29.90-0.07 59.0-----
2024-04-14 11:54 am SW 11.1 17.1----29.91- 59.2-----
2024-04-14 11:48 am SW 14.0 15.9----29.91- 59.2-----
2024-04-14 11:42 am SW 15.0 19.0----29.91- 59.0-----
2024-04-14 11:36 am SW 13.0 18.1----29.91- 59.5-----
2024-04-14 11:30 am SW 15.0 17.1----29.91-------
2024-04-14 11:24 am SW 12.0 18.1----29.91-------
2024-04-14 11:18 amWSW 14.0 17.1----29.92-------
2024-04-14 11:12 amWSW 12.0 18.1----29.92-------
2024-04-14 11:06 am SW 11.1 15.9----29.92-------
2024-04-14 11:00 am SW 14.0 17.1----29.92-0.04 57.7-----
2024-04-14 10:54 am SW 13.0 17.1----29.93- 57.9-----
2024-04-14 10:48 am SW 14.0 18.1----29.93- 57.2-----
2024-04-14 10:42 am SW 15.9 21.0----29.92- 57.2-----
2024-04-14 10:36 am SW 15.0 17.1----29.92- 56.5-----
2024-04-14 10:30 am SW 15.0 19.0----29.92- 57.0-----
2024-04-14 10:24 am SW 15.0 18.1----29.93- 56.7-----
2024-04-14 10:18 amWSW 9.9 12.0----29.94- 55.9-----
2024-04-14 10:12 am SW 7.0 8.9----29.94- 55.8-----
2024-04-14 10:06 amWSW 7.0 11.1----29.94- 55.4-----
2024-04-14 10:00 amWSW 11.1 18.1----29.95+0.00------
2024-04-14 09:54 amWSW 11.1 13.0----29.95-------
2024-04-14 09:48 am SW 8.9 12.0----29.95- 55.4-----
2024-04-14 09:42 amWSW 7.0 8.9----29.94- 54.7-----
2024-04-14 09:36 amWSW 5.1 6.0----29.95- 54.1-----
2024-04-14 09:30 amWSW 4.1 9.9----29.96-------
2024-04-14 09:24 amWSW 6.0 8.0----29.96-------
2024-04-14 09:18 am W 7.0 8.0----29.96- 53.2-----
2024-04-14 09:12 am W 9.9 12.0----29.96- 52.7-----
2024-04-14 09:06 am W 11.1 13.0----29.97- 52.5-----
2024-04-14 09:00 am W 11.1 14.0----29.97- 52.2-----
2024-04-14 08:54 am W 11.1 13.0----29.97- 52.0-----
2024-04-14 08:48 am-------29.97- 52.0-----
2024-04-14 08:42 am-------29.98- 52.0-----
2024-04-14 08:36 am-------29.98- 51.8-----
2024-04-14 08:30 am W 8.9 11.1----29.98-------
2024-04-14 08:24 am W 8.9 11.1----29.98-------
2024-04-14 08:18 am W 8.0 8.9----29.98- 51.3-----
2024-04-14 08:12 am W 6.0 8.0----29.97- 51.4-----
2024-04-14 08:06 am SW 5.1 5.1----29.97- 50.9-----
2024-04-14 08:00 amSSW 5.1 5.1----29.97+0.04------
2024-04-14 07:54 amSSE 4.1 5.1----29.96-------
2024-04-14 07:48 amSSE 4.1 5.1----29.97-------
2024-04-14 07:42 amSSE 4.1 6.0----29.96-------
2024-04-14 07:36 amSSE 4.1 6.0----29.96-------
2024-04-14 07:30 am SE 4.1 5.1----29.96- 49.3-----
2024-04-14 07:24 am SE 5.1 6.0----29.96- 49.3-----
2024-04-14 07:18 am SE 4.1 6.0----29.96-------
2024-04-14 07:12 am SE 4.1 5.1----29.95-------
2024-04-14 07:06 amSSE 4.1 6.0----29.95-------
2024-04-14 07:00 amSSE 5.1 5.1----29.95+0.03 48.7-----
2024-04-14 06:54 amSSE 5.1 6.0----29.95- 48.7-----
2024-04-14 06:48 amWSW 7.0 8.0----29.94-------
2024-04-14 06:42 amWSW 7.0 8.9----29.94-------
2024-04-14 06:36 am W 6.0 8.0----29.94-------
2024-04-14 06:30 amWSW 5.1 6.0----29.94- 50.2-----
2024-04-14 06:24 amWSW 2.9 5.1----29.94- 49.6-----
2024-04-14 06:18 am SW 2.9 7.0----29.93- 49.6-----
2024-04-14 06:12 amWSW 5.1 6.0----29.93- 50.0-----
2024-04-14 06:06 amWSW 6.0 8.0----29.93- 50.0-----
2024-04-14 06:00 am W 6.0 8.0------ 50.0-----
2024-04-14 05:54 am W 7.0 8.0------ 50.0-----
2024-04-14 05:48 amWSW 5.1 8.0------ 49.8-----
2024-04-14 05:42 amWSW 5.1 7.0------ 49.5-----
2024-04-14 05:36 amWSW 4.1 6.0------ 49.5-----
2024-04-14 05:30 amWSW 5.1 6.0----29.93-------
2024-04-14 05:24 amWSW 4.1 5.1----29.93-------
2024-04-14 05:18 am W 5.1 6.0----29.93- 49.5-----
2024-04-14 05:12 amWSW 4.1 6.0----29.93- 49.5-----
2024-04-14 05:06 amWSW 5.1 6.0----29.93- 49.5-----
2024-04-14 05:00 am W 5.1 7.0----29.93+0.04 49.5-----
2024-04-14 04:54 am W 5.1 8.0----29.93- 49.5-----
2024-04-14 04:48 am W 6.0 8.0----29.93- 49.5-----
2024-04-14 04:42 am W 6.0 7.0----29.93- 49.6-----
2024-04-14 04:36 am W 5.1 8.0----29.93- 49.6-----
2024-04-14 04:30 am W 5.1 7.0----29.93- 49.6-----
2024-04-14 04:24 am W 5.1 8.0----29.92- 49.6-----
2024-04-14 04:18 am W 6.0 8.0----29.92- 49.8-----
2024-04-14 04:12 am W 7.0 9.9----29.92- 50.0-----
2024-04-14 04:06 am W 5.1 8.9----29.92- 49.8-----
2024-04-14 04:00 am W 6.0 9.9----29.92+0.04 49.8-----
2024-04-14 03:54 am W 8.0 9.9----29.92- 50.2-----
2024-04-14 03:48 am W 7.0 9.9----29.92- 50.0-----
2024-04-14 03:42 am W 8.0 11.1----29.92- 50.0-----
2024-04-14 03:36 am W 7.0 8.9----29.92- 50.0-----
2024-04-14 03:30 am W 7.0 9.9----29.91- 50.2-----
2024-04-14 03:24 amWNW 7.0 8.9----29.91- 50.4-----
2024-04-14 03:18 am W 7.0 9.9----29.91- 50.4-----
2024-04-14 03:12 amWNW 8.9 12.0----29.91- 50.4-----
2024-04-14 03:06 am W 8.0 15.9----29.91- 50.4-----
2024-04-14 03:00 amWNW 7.0 9.9----29.91+0.04 50.4-----
2024-04-14 02:54 amWNW 8.0 12.0----29.91- 50.5-----
2024-04-14 02:48 amWNW 8.0 15.0----29.90- 50.2-----
2024-04-14 02:42 amWNW 12.0 15.9----29.90- 50.7-----
2024-04-14 02:36 amWNW 11.1 14.0----29.90- 50.7-----
2024-04-14 02:30 amWNW 12.0 18.1----29.90- 50.5-----
2024-04-14 02:24 amWNW 12.0 18.1----29.89- 50.7-----
2024-04-14 02:18 amWNW 11.1 20.0----29.90- 50.4-----
2024-04-14 02:12 amWNW 11.1 17.1----29.89- 50.5-----
2024-04-14 02:06 amWNW 14.0 19.0----29.89- 51.1-----
2024-04-14 02:00 amWNW 14.0 17.1----29.89+0.04 50.9-----
2024-04-14 01:54 amWNW 11.1 15.0----29.89- 50.9-----
2024-04-14 01:48 am W 8.9 13.0----29.89- 51.1-----
2024-04-14 01:42 amWNW 9.9 13.0----29.89- 51.1-----
2024-04-14 01:36 amWNW 13.0 15.9----29.89- 51.3-----
2024-04-14 01:30 am W 11.1 14.0----29.89- 51.3-----
2024-04-14 01:24 am W 12.0 18.1----29.89- 51.6-----
2024-04-14 01:18 amWNW 9.9 14.0----29.89- 51.3-----
2024-04-14 01:12 amWNW 11.1 15.9----29.89- 51.4-----
2024-04-14 01:06 amWNW 9.9 18.1----29.89- 51.1-----
2024-04-14 01:00 amWNW 15.0 22.0----29.88+0.04 51.6-----
2024-04-14 12:54 amWNW 13.0 18.1----29.88- 51.6-----
2024-04-14 12:48 amWNW 15.0 24.1----29.88- 51.4-----
2024-04-14 12:42 amWNW 15.0 24.1----29.88- 51.4-----
2024-04-14 12:36 amWNW 19.0 22.0----29.88- 51.8-----
2024-04-14 12:30 amWNW 17.1 20.0----29.87- 51.6-----
2024-04-14 12:24 amWNW 15.9 22.0----29.87- 51.3-----
2024-04-14 12:18 amWNW 13.0 22.0----29.87- 51.3-----
2024-04-14 12:12 amWNW 12.0 19.0----29.87- 51.3-----
2024-04-14 12:06 amWNW 19.0 22.9----29.87- 51.6-----
2024-04-14 12:00 amWNW 15.0 20.0----29.87+0.05 51.4-----
2024-04-13 11:54 pm W 14.0 15.9----29.86- 51.4-----
2024-04-13 11:48 pmWNW 11.1 17.1----29.86- 51.4-----
2024-04-13 11:42 pmWNW 13.0 18.1----29.86- 51.6-----
2024-04-13 11:36 pm W 14.0 15.9----29.86- 51.4-----
2024-04-13 11:30 pm W 12.0 19.0----29.86- 51.4-----
2024-04-13 11:24 pmWNW 11.1 18.1----29.86- 51.3-----
2024-04-13 11:18 pm W 11.1 20.0----29.86- 51.4-----
2024-04-13 11:12 pmWNW 14.0 18.1----29.85- 51.8-----
2024-04-13 11:06 pm W 11.1 15.0----29.85- 51.6-----
2024-04-13 11:00 pm W 14.0 18.1----29.85+0.06 51.6-----
2024-04-13 10:54 pmWNW 13.0 17.1----29.85- 51.4-----
2024-04-13 10:48 pmWNW 11.1 17.1----29.85- 51.4-----
2024-04-13 10:42 pm W 12.0 19.0----29.85- 51.4-----
2024-04-13 10:36 pmWNW 17.1 19.0----29.85- 51.6-----
2024-04-13 10:30 pmWNW 14.0 19.0----29.85- 51.4-----
2024-04-13 10:24 pmWNW 15.0 20.0----29.85- 51.3-----
2024-04-13 10:18 pmWNW 17.1 22.9----29.85- 51.6-----
2024-04-13 10:12 pmWNW 15.9 22.0----29.84- 51.6-----
2024-04-13 10:06 pmWNW 19.0 25.1----29.84- 51.6-----
2024-04-13 10:00 pmWNW 17.1 21.0----29.84+0.09 51.4-----
2024-04-13 09:54 pmWNW 19.0 24.1----29.84- 51.8-----
2024-04-13 09:48 pmWNW 17.1 20.0----29.84- 51.6-----
2024-04-13 09:42 pmWNW 15.0 22.0----29.83- 51.3-----
2024-04-13 09:36 pmWNW 19.0 24.1----29.83- 51.4-----
2024-04-13 09:30 pmWNW 21.0 25.1----29.83- 51.4-----
2024-04-13 09:24 pmWNW 19.0 24.1----29.83- 51.4-----
2024-04-13 09:18 pmWNW 18.1 28.9----29.83- 51.3-----
2024-04-13 09:12 pmWNW 22.0 28.9----29.82- 51.6-----
2024-04-13 09:06 pmWNW 18.1 22.0----29.82- 51.4-----
2024-04-13 09:00 pmWNW 17.1 22.9----29.82+0.10 51.4-----
2024-04-13 08:54 pmWNW 19.0 24.1----29.82- 51.4-----
2024-04-13 08:48 pmWNW 15.9 22.9----29.81- 51.4-----
2024-04-13 08:42 pmWNW 19.0 25.1----29.81- 51.4-----
2024-04-13 08:36 pmWNW 18.1 25.1----29.81- 51.4-----
2024-04-13 08:30 pmWNW 24.1 28.0----29.80- 51.8-----
2024-04-13 08:24 pmWNW 18.1 24.1----29.80- 51.6-----
2024-04-13 08:18 pm-------29.80- 51.6-----
2024-04-13 08:12 pm-------29.80- 51.6-----
2024-04-13 08:06 pm-------29.79- 51.8-----
2024-04-13 08:00 pm-------29.79+0.09 51.8-----
2024-04-13 07:54 pm-------29.78- 52.0-----
2024-04-13 07:48 pmWNW 26.0 32.1----29.78- 51.8-----
2024-04-13 07:42 pmWNW 21.0 29.9----29.78- 52.0-----
2024-04-13 07:36 pmWNW 25.1 29.9----29.77- 52.0-----
2024-04-13 07:30 pmWNW 19.0 24.1----29.77- 52.0-----
2024-04-13 07:24 pmWNW 19.0 22.0----29.76- 52.0-----
2024-04-13 07:00 pmWNW 15.9 25.1----29.75+0.07 51.6-----
2024-04-13 06:54 pmWNW 15.9 22.9----29.74- 51.4-----
2024-04-13 06:48 pmWNW 21.0 26.0----29.74- 51.6-----
2024-04-13 06:42 pmWNW 15.9 19.0----29.74- 51.1-----
2024-04-13 06:36 pmWNW 13.0 27.0----29.74- 51.3-----
2024-04-13 06:30 pmWNW 15.0 20.0----29.73- 51.3-----
2024-04-13 06:24 pmWNW 15.0 21.0----29.73- 51.4-----
2024-04-13 06:18 pmWNW 17.1 22.0----29.72- 51.4-----
2024-04-13 06:12 pmWNW 15.9 20.0----29.72- 51.3-----
2024-04-13 06:06 pmWNW 19.0 22.9----29.72- 50.9-----
2024-04-13 06:00 pmWNW 18.1 25.1----29.72+0.06 50.9-----
2024-04-13 05:54 pmWNW 22.0 26.0----29.72- 50.9-----